FW1964 Weather Reports


Display with metric or nautical units.
time (UTC)temp
F
wind
direction
speed
MPH
gust
MPH
rain 1hr
in
rain 24hr
in
rain mn
in
humidity
%
barometer
mb
20260507003040 65 192 3.0 8.0 0.00 0.00 0.00 54 1019.4
20260507001546 65 236 4.0 12.0 0.00 0.00 0.00 54 1019.3
20260507000038 66 234 2.0 9.0 0.00 0.00 0.00 53 1019.2
20260506234538 65 234 6.0 16.0 0.00 0.00 0.00 54 1019.1
20260506233041 67 252 8.0 15.0 0.00 0.00 0.00 51 1018.9
20260506231538 68 219 3.0 15.0 0.00 0.00 0.00 51 1018.9
20260506230042 69 238 4.0 12.0 0.00 0.00 0.00 49 1019.0
20260506224534 70 156 4.0 10.0 0.00 0.00 0.00 48 1019.2
20260506223032 71 193 5.0 10.0 0.00 0.00 0.00 47 1019.2
20260506221530 70 214 3.0 10.0 0.00 0.00 0.00 48 1019.4
20260506220032 70 165 3.0 10.0 0.00 0.00 0.00 47 1019.6
20260506214528 69 171 2.0 11.0 0.00 0.00 0.00 49 1019.8
20260506213027 69 221 7.0 14.0 0.00 0.00 0.00 48 1019.9
20260506211530 68 261 5.0 12.0 0.00 0.00 0.00 50 1019.9
20260506210025 68 213 6.0 12.0 0.00 0.00 0.00 49 1020.0
20260506204525 69 225 6.0 11.0 0.00 0.00 0.00 48 1020.0
20260506203026 69 180 6.0 13.0 0.00 0.00 0.00 48 1020.0
20260506201524 69 211 4.0 12.0 0.00 0.00 0.00 48 1020.0
20260506200018 69 278 5.0 9.0 0.00 0.00 0.00 48 1020.0
20260506194516 70 194 5.0 10.0 0.00 0.00 0.00 47 1020.0
20260506193013 70 238 3.0 9.0 0.00 0.00 0.00 46 1020.1
20260506191512 71 343 1.0 8.0 0.00 0.00 0.00 41 1020.2
20260506190009 71 319 1.0 5.0 0.00 0.00 0.00 43 1020.5
20260506184517 69 341 3.0 9.0 0.00 0.00 0.00 44 1020.5
20260506183006 69 53 2.0 5.0 0.00 0.00 0.00 46 1020.6
20260506181503 68 312 2.0 7.0 0.00 0.00 0.00 48 1020.6
20260506180101 67 5 3.0 8.0 0.00 0.00 0.00 49 1020.5
20260506174601 66 313 1.0 6.0 0.00 0.00 0.00 50 1020.6
20260506173125 65 344 2.0 6.0 0.00 0.00 0.00 50 1020.6
20260506171553 65 292 1.0 5.0 0.00 0.00 0.00 51 1020.5
20260506170051 64 355 2.0 5.0 0.00 0.00 0.00 51 1020.8
20260506164548 63 44 2.0 5.0 0.00 0.00 0.00 52 1020.8
20260506163050 62 51 1.0 4.0 0.00 0.00 0.00 54 1020.9
20260506161546 61 333 1.0 5.0 0.00 0.00 0.00 55 1020.9
20260506160040 60 319 2.0 5.0 0.00 0.00 0.00 55 1021.1
20260506154536 58 293 0.0 0.0 0.00 0.00 0.00 55 1021.0
20260506153040 56 297 0.0 0.0 0.00 0.00 0.00 54 1021.1
20260506151529 54 173 0.0 0.0 0.00 0.00 0.00 55 1021.2
20260506150029 53 173 0.0 0.0 0.00 0.00 0.00 56 1021.3
20260506144549 51 176 0.0 0.0 0.00 0.00 0.00 57 1021.4
20260506143027 51 176 0.0 0.0 0.00 0.00 0.00 57 1021.3
20260506141525 50 176 0.0 0.0 0.00 0.00 0.00 57 1021.3
20260506140038 50 175 0.0 0.0 0.00 0.00 0.00 58 1021.1
20260506134530 50 176 0.0 0.0 0.00 0.00 0.00 58 1020.9
20260506133022 50 184 0.0 0.0 0.00 0.00 0.00 58 1020.8
20260506131521 50 184 0.0 0.0 0.00 0.00 0.00 58 1020.7
20260506130017 49 184 0.0 0.0 0.00 0.00 0.00 58 1020.5
20260506124514 49 184 0.0 0.0 0.00 0.00 0.00 58 1020.3
20260506123015 49 175 0.0 0.0 0.00 0.00 0.00 59 1020.3
20260506121512 49 175 0.0 0.0 0.00 0.00 0.00 59 1020.2
20260506120022 49 175 0.0 0.0 0.00 0.00 0.00 59 1020.2
20260506114518 49 175 0.0 0.0 0.00 0.00 0.00 58 1020.2
20260506113008 49 175 0.0 0.0 0.00 0.00 0.00 58 1020.1
20260506111507 49 175 0.0 0.0 0.00 0.00 0.00 59 1020.0
20260506110007 49 175 0.0 0.0 0.00 0.00 0.00 59 1020.0
20260506104506 49 175 0.0 0.0 0.00 0.00 0.00 59 1020.0
20260506103004 49 175 0.0 0.0 0.00 0.00 0.00 60 1020.0
20260506101504 49 173 0.0 0.0 0.00 0.00 0.00 60 1020.1
20260506100006 49 177 0.0 0.0 0.00 0.00 0.00 60 1020.1
20260506094605 50 184 0.0 0.0 0.00 0.00 0.00 60 1020.1
20260506093059 50 169 0.0 0.0 0.00 0.00 0.00 60 1020.2
20260506091558 51 150 0.0 0.0 0.00 0.00 0.00 60 1020.2
20260506090056 51 61 0.0 0.0 0.00 0.00 0.00 60 1020.1
20260506084555 51 149 0.0 0.0 0.00 0.00 0.00 61 1020.1
20260506083056 52 59 0.0 0.0 0.00 0.00 0.00 62 1020.0
20260506081603 52 61 0.0 0.0 0.00 0.00 0.00 63 1020.1
20260506073041 55 66 0.0 1.0 0.00 0.00 0.00 62 1019.7
20260506071543 56 71 0.0 0.0 0.00 0.00 0.00 62 1019.7
20260506061536 57 71 0.0 0.0 0.00 0.00 0.00 61 1019.4
20260506050131 57 71 0.0 0.0 0.00 0.00 0.00 62 1019.0
20260506044542 58 78 0.0 0.0 0.00 0.00 0.00 62 1018.9
20260506043025 58 175 0.0 0.0 0.00 0.00 0.00 62 1018.9
20260506041522 58 174 0.0 1.0 0.00 0.00 0.00 61 1018.8
20260506040022 58 221 0.0 3.0 0.00 0.00 0.00 61 1018.6
20260506034520 58 172 0.0 0.0 0.00 0.00 0.00 61 1018.5
20260506033026 58 165 0.0 2.0 0.00 0.00 0.00 61 1018.2
20260506031616 58 184 0.0 2.0 0.00 0.00 0.00 60 1018.0
20260506030015 58 216 0.0 3.0 0.00 0.00 0.00 60 1017.8
20260506024519 58 225 0.0 5.0 0.00 0.00 0.00 59 1017.8
20260506023012 59 195 2.0 4.0 0.00 0.00 0.00 58 1017.9
20260506021514 59 204 2.0 8.0 0.00 0.00 0.00 57 1017.8
20260506020016 59 231 1.0 5.0 0.00 0.00 0.00 55 1017.6
20260506014510 59 221 2.0 8.0 0.00 0.00 0.00 54 1017.6
20260506013013 60 209 6.0 10.0 0.00 0.00 0.00 53 1017.4
20260506011516 61 215 2.0 8.0 0.00 0.00 0.00 50 1017.3
20260506010027 62 287 4.0 10.0 0.00 0.00 0.00 49 1017.2
20260506004507 63 214 6.0 9.0 0.00 0.00 0.00 49 1017.2